Weather in Turukhansk

Russia / Krasnoyarsk Krai     65°47′35″N   87°57′33″E
temp.,
°C
wind,
m/s
gust,
m/s
humid.,
%
clouds,
%
prec.,
mm/h
press.,
hPa
HPBL,
m
24 july, sat
sat2401:00+17sse61382100 0.4 1006196
04:00+20s91680100 0.3 1005405
07:00+21s9167139 0.3 1006467
10:00+25ssw1015555 0.0 1006923
13:00+28ssw1012464 0.0 10071784
16:00+29wsw7104871 0.0 10072067
19:00+25nnw546817 0.0 1007347
22:00+22ne33820 0.0 100737
25 july, sun
sun2501:00+19sse56700 0.0 100668
04:00+19sse59750 0.0 1006120
07:00+21s713640 0.0 1006326
10:00+25s811510 0.0 1006691
13:00+28ssw912425 0.0 10051781
16:00+30ssw810390 0.0 10052028
19:00+29s69442 0.0 1004435
22:00+23ssw446190 0.0 100441
26 july, mon
mon2601:00+18nnw349562 0.0 100655
04:00+16n229593 0.0 100620
07:00+19n448759 0.0 1006233
10:00+24ne236599 0.0 1005495
13:00+28sse3445100 0.0 1003980
16:00+31sse3737100 0.0 10012152
19:00+29ese5849100 0.0 1000227
22:00+26ese51053100 0.0 998141
27 july, tue
tue2701:00+27se8154741 0.0 996368
04:00+26se8174982 0.0 995434
07:00+25se8155512 0.0 995384
10:00+29se9124632 0.0 994943
13:00+31sse9134099 0.0 9932369
16:00+28sse81245100 0.0 994617
19:00+24ssw7107298 0.8 995499
22:00+18s4795100 3.6 997289
28 july, wed
wed2801:00+16s81388100 3.8 999473
04:00+13s5108295 0.0 1000387
07:00+14s61078100 0.0 1002916
10:00+14s7968100 0.0 1003959
13:00+14s81070100 0.1 10051060
16:00+13sw5781100 0.1 1007741
19:00+11wsw4576100 0.2 1010715
22:00+11w3470100 0.0 1012368